weather.gov     
National Weather Service

Regional Weather Roundup
NWS Homepage
This page is being discontinued on March 12, 2014.
The same data is available at this site. Please update your bookmarks.
Thank you, and we apologize for the inconvenience.
Please send an email to SR-SRH.Webmaster@noaa.gov with any concerns.


Current Version
Previous Version:    01  02  03  04  05  06  07  08  09  10  11  12  13  14  15  16  17  18  19  20  21  22  23  24  25  26  
[Printable]
365
ASUS44 KLCH 201810
RWRLCH
RWRLCH
REGIONAL WEATHER ROUNDUP
NATIONAL WEATHER SERVICE LAKE CHARLES LA
100 PM CDT WED AUG 20 2014

Note: "fair" indicates few or no clouds below 12,000 feet with no
significant weather and/or obstructions to visibility.


ACROSS SOUTHEAST TEXAS

CITY           SKY/WX    TMP DP  RH WIND       PRES   REMARKS
BEAUMONT       PTSUNNY   90  76  63 S14       30.02S HX 101
BEAUMONT CITY  MOCLDY    90  77  64 SE12      30.02S HX 102
ORANGE         CLEAR     91  75  60 S12       30.04S HX 101
JASPER         MOSUNNY   89  74  62 S10       30.06S
$$

ACROSS CENTRAL LOUISIANA

CITY           SKY/WX    TMP DP  RH WIND       PRES   REMARKS
LEESVILLE      MOSUNNY   90  73  57 SW8       30.05S
FULLERTON        N/A     93  73  52 VRB6      30.02F HX 102
ALEXANDRIA INT MOSUNNY   91  74  57 S7        30.03F HX 100
ESLER FIELD    MOSUNNY   91  74  57 CALM      30.05F HX 100
DERIDDER         N/A     90  74  58 CALM      30.06F HAZE
OAKDALE        PTCLDY    91  75  60 S7        30.04F HX 102
OPELOUSAS      MOCLDY   N/A N/A N/A S5        30.05F
$$

ACROSS SOUTHWEST AND SOUTH CENTRAL LOUISIANA

CITY           SKY/WX    TMP DP  RH WIND       PRES   REMARKS
SULPHUR        PTCLDY    92  78  62 S12       30.04S HX 107
LAKE CHARLES   SUNNY     91  76  61 S10       30.03F HX 103
CHENNAULT INT  NOT AVBL
CAMERON PHI    CLEAR     90  79  70 S12       30.05S HX 105
DEQUINCY         N/A     89  76  65 S6        30.04S HX 101
JENNINGS         N/A     90  79  71 SE7       30.04F HX 106
LAFAYETTE      MOSUNNY   91  75  59 SW10      30.05F HX 101
NEW IBERIA     MOSUNNY   94  75  54 S13       30.06S THUNDER HX 105
ABBEVILLE        N/A     92  75  58 S8        30.05S THUNDER HX 103
PATTERSON      MOSUNNY  N/A N/A N/A MISG        N/A
SALT POINT       N/A     93  79  63 VRB5      30.07S HX 110
$$

SELECTED SITES ACROSS THE REGION

CITY           SKY/WX    TMP DP  RH WIND       PRES   REMARKS
HOUSTON BUSH   PTSUNNY   94  75  54 S9        29.99F HX 105
HOUSTON HOBBY  MOSUNNY   91  76  61 S7        29.99F HX 103
GALVESTON      MOSUNNY   92  80  68 S18       30.02S HX 110
COLLEGE STAT   MOSUNNY   93  73  52 S12       29.98F HX 102
CONROE         PTSUNNY   93  74  53 SE10      30.00F HX 103
HUNTSVILLE     MOSUNNY   91  73  55 S8        30.00F
LUFKIN         MOSUNNY   92  74  55 VRB6      30.02F HX 101
SHREVEPORT     MOSUNNY   92  70  48 VRB5      30.02F
MONROE         MOSUNNY   89  72  56 CALM      30.06F
NATCHEZ MS     MOSUNNY   90  75  62 S8        30.09S HX 100
BATON ROUGE    PTSUNNY   90  74  59 NW3       30.06F
N.O. INTL ARPT PTSUNNY   90  77  65 VRB5      30.07F HX 103
SLIDELL        MOSUNNY   92  73  53 CALM      30.07F HX 100
$$

MARINE REPORTS

STATION/POSITION TIME  TEMP    WIND        PRES    VSBY  WAVE
                       AIR SEA DIR/SP/G                  HT/PER
                 (UTC) (F)     (DEG/KT/KT) (MB)    (MI)  (FT/S)
BUOY 30 S HIGH I NOT AVBL
SEA RIM ST PARK  1800   88     180/ 14/ 17 1017.2F
PORT ARTHUR      1800      87  170/  9/ 16 1017.0R
SABINE PASS N    1800   89 86  190/ 11/ 15 1017.0F
TEXAS POINT      1800   86 87  190/ 10/ 14 1017.3F
CALCASIEU PASS   1800   86 87  200/ 10/ 13 1018.5F
LK CHARLES BEACH 1800   92 86              1017.7F
MARSH ISLAND     1700   88     190/  5/  8   N/A
FRESH WATER LOCK 1800   86 89  170/  9/ 11 1018.1R
AMERADA PASS     1800   89 86  190/  4/  6 1018.3F
$$




U.S. Dept. of Commerce
NOAA National Weather Service
1325 East West Highway
Silver Spring, MD 20910
E-mail: w-nws.webmaster@noaa.gov
Page last modified: May 16, 2007
NATIONAL WEATHER SERVICE: for Safety, for Work, for Fun - FOR LIFE